Location: downtown San Diego
(32.7310°N, 117.1990°W)
Time: 10:56:56
(UTC-07:00)

Daily predictions for brighter satellites

Satellite Brightness Start Highest point End
(mag) Time Altitude Azimuth Time Altitude Azimuth Time Altitude Azimuth
Cosmos 2034 Rocket 4.1 19:35:26 10° S 19:41:46 76° E 19:48:07 10° N
NOSS 3-4 (A) 4.2 19:35:12 10° NNW 19:42:34 84° WSW 19:50:59 10° SSE
NOSS 3-4 (C) 4.2 19:35:18 10° NNW 19:42:38 85° WSW 19:51:02 10° SSE
Cosmos 1980 Rocket 3.5 19:40:01 10° SW 19:45:27 48° WNW 19:50:54 10° N
Cosmos 2322 Rocket 3.6 19:42:33 10° SE 19:46:01 17° E 19:49:28 10° ENE
Meteor 1-31 Rocket 2.6 19:42:54 10° SSE 19:46:25 86° WSW 19:49:58 10° NNW
SL-4 R/B 1.3 19:48:24 10° SW 19:51:37 86° SE 19:54:57 10° NE
Cosmos 1378 Rocket 4.0 19:49:49 10° N 19:53:58 41° E 19:58:06 10° SSE
NOSS 8 (A) 4.5 19:54:13 10° NNW 19:57:27 74° ENE 20:01:34 10° SE
Cosmos 2237 4.2 19:52:55 10° S 19:58:32 61° ESE 20:04:10 10° NNE
Cosmos 2219 3.4 19:55:16 10° NNW 20:00:57 59° ENE 20:06:35 10° SSE
YAOGAN 1 4.1 20:01:43 10° SSW 20:05:40 38° W 20:09:39 10° NNW
Intelsat 5-3 Rocket 3.9 20:05:30 10° SW 20:09:40 20° S 20:11:50 13° SE
Helios 1B rocket 3.8 20:08:33 14° E 20:10:04 17° ENE 20:12:31 10° NNE
Cosmos 1420 Rocket 3.9 20:05:11 10° S 20:10:18 69° ESE 20:15:29 10° NNE
Cosmos 1674 Rocket 3.7 20:08:40 10° N 20:12:52 50° E 20:17:01 10° SSE
Cosmos 1371 Rocket 4.2 20:09:33 10° S 20:14:27 46° ESE 20:19:25 10° NNE
CZ-4C R/B 3.3 20:15:42 10° WSW 20:19:26 36° NW 20:23:55 10° NNE
Cosmos 2251 Rocket 4.2 20:16:12 10° N 20:21:06 37° ENE 20:24:29 18° SE
USA 186 2.7 20:20:59 23° E 20:21:31 24° ENE 20:23:56 10° NNE
Hubble Space Telescope 1.6 20:20:12 10° SW 20:23:36 30° SSE 20:25:08 22° SE
Cosmos 2056 Rocket 3.5 20:19:01 10° S 20:24:09 61° ESE 20:29:25 10° NNE
Cosmos 2360 Rocket 2.8 20:21:49 10° SSE 20:26:48 33° ESE 20:31:47 10° NE
CZ-4B R/B 4.1 20:26:32 21° E 20:27:33 24° ENE 20:30:46 10° NNE
Meteor 1-21 Rocket 4.3 20:24:52 10° N 20:30:46 87° E 20:36:41 10° S
CARTOSAT-1 3.8 20:28:44 10° S 20:32:54 66° W 20:37:06 10° NNW
SL-08 R/B 3.6 20:28:26 10° N 20:33:18 75° WNW 20:38:11 10° SSW
SeaSat 1 3.2 20:31:08 22° ESE 20:33:32 35° ENE 20:37:58 10° N
GOES 2 Rocket 3.6 20:29:27 10° WSW 20:34:48 49° S 20:37:00 27° ESE
OAO 3 Rocket 3.2 20:31:02 10° WNW 20:35:44 74° N 20:38:21 25° E
Cosmos 1782 Rocket 3.9 20:32:11 12° SSE 20:35:58 44° E 20:40:10 10° NNE
Cosmos 1624 Rocket 3.9 20:31:56 10° SSW 20:37:11 80° ESE 20:42:26 10° NNE
CZ-2C R/B 3.6 20:34:57 10° S 20:38:00 39° W 20:41:04 10° NNW
Okean-O 4.4 20:38:27 15° ENE 20:38:27 15° ENE 20:40:50 10° NNE
ADEOS 3.5 20:39:59 11° SSE 20:44:55 90° SSE 20:50:09 10° NNW
CZ-4B DEB 4.2 20:39:46 10° SSE 20:45:16 88° W 20:50:49 10° NNW
Meteor PRIRODA 4.3 20:46:09 27° NE 20:46:09 27° NE 20:48:06 10° N
Cosmos 1025 Rocket 2.9 20:41:50 10° N 20:46:07 70° E 20:48:21 27° SSE
Cosmos 407 Rocket 3.5 20:41:23 10° NNW 20:46:32 78° WSW 20:50:35 16° S
Cosmos 1818 3.9 20:41:28 10° NNW 20:46:44 49° ENE 20:48:55 32° ESE
Cosmos 1844 Rocket 3.7 20:43:21 10° N 20:48:15 29° ENE 20:49:39 26° E
Cosmos 2142 Rocket 4.4 20:43:11 10° S 20:49:29 74° E 20:55:44 10° N
Cosmos 2082 4.0 20:47:43 10° NNW 20:53:23 66° WSW 20:57:55 16° S
Cosmos 2333 Rocket 2.1 20:49:14 10° SSW 20:54:56 72° ESE 21:00:41 10° NNE
Intercosmos 25 4.3 20:47:26 10° S 20:55:11 89° E 20:59:53 10° N
CZ-4 R/B 2.0 20:53:25 16° S 20:56:17 50° W 21:00:02 10° NNW
SJ 16-02 3.5 20:55:33 10° NE 20:56:35 12° NE 20:56:35 12° NE
Cosmos 2221 Rocket 4.0 20:53:34 10° NNW 20:57:56 60° W 21:01:25 15° S
Cosmos 2263 Rocket 3.5 20:53:12 10° NW 20:58:23 37° WSW 21:03:33 10° S
SL-16 R/B 2.9 20:54:31 10° SW 21:00:02 54° WNW 21:05:35 10° N
Resurs 01 Rocket 3.1 20:56:58 10° SSW 21:01:02 36° W 21:05:06 10° NNW
USA 290 3.6 21:00:35 10° N 21:02:30 29° NNE 21:02:30 29° NNE
CZ-4B R/B 3.2 21:01:53 28° SSE 21:05:01 83° ENE 21:10:42 10° NNW
SPOT 5 2.9 21:03:37 43° SE 21:05:06 63° ENE 21:09:57 10° N
Tiangong -1.2 21:04:51 10° WNW 21:07:23 45° WSW 21:07:23 45° WSW
Cosmos 676 Rocket 4.4 21:03:03 10° N 21:08:07 43° ENE 21:08:37 42° E
DNEPR-1 R/B 3.4 21:04:27 10° NNW 21:08:37 63° ENE 21:08:52 62° E
KM-V1 4.5 21:05:04 10° W 21:09:17 68° S 21:09:49 61° SE
Delta 2 Rocket 3.2 21:05:31 10° WSW 21:09:49 83° NNW 21:10:20 67° ENE
Cosmos 1932 4.3 21:06:01 10° SSW 21:12:08 75° ESE 21:18:22 10° NNE
Cosmos 2084 3.4 21:08:43 10° NNW 21:12:13 58° NNE 21:12:13 58° NNE
Helios 1A 2.8 21:08:43 10° N 21:12:45 85° WNW 21:13:47 49° SSW
RESURS DK-1 2.7 21:09:30 10° NNW 21:12:56 50° NE 21:12:56 50° NE
Delta 142 4.2 21:10:28 10° W 21:14:26 38° SSW 21:14:26 38° SSW
Okean O Rocket 1.6 21:14:59 59° ENE 21:14:59 59° ENE 21:19:14 10° N
MOS 1 4.3 21:14:11 48° SE 21:15:33 63° ENE 21:21:10 10° N
Cosmos 1844 3.9 21:15:30 10° N 21:20:53 49° ENE 21:21:10 49° ENE
Cosmos 1461 3.1 21:22:23 10° NNW 21:25:53 64° NNW 21:25:53 64° NNW
Cosmos 44 3.9 21:24:14 10° SW 21:28:31 49° WNW 21:32:42 10° NNE
Cosmos 2322 Rocket 2.9 21:23:59 10° SW 21:29:29 52° WNW 21:35:03 10° N
BREEZE-M DEB (TANK) 3.5 21:20:28 10° NW 21:32:05 85° NE 21:32:32 74° ESE
Cosmos 2219 Rocket 2.0 21:41:48 85° SE 21:41:51 85° ESE 21:47:33 10° NNE
Cosmos 1331 Rocket 3.9 21:42:19 83° W 21:42:21 83° WNW 21:47:40 10° NNE
Spot 3 4.5 21:43:28 86° WSW 21:43:29 86° WSW 21:48:51 10° NNW
Helios 1B rocket 4.2 21:43:18 22° WSW 21:43:37 22° W 21:46:33 10° NW
Cosmos 1452 Rocket 3.7 21:48:33 66° N 21:48:33 66° N 21:53:05 10° NNE
BREEZE M DEB (TANK) 3.9 21:36:30 10° NW 21:53:25 64° SW 21:54:28 57° S
Terra 2.7 21:59:18 44° NNW 21:59:18 44° NNW 22:02:33 10° NNW
IRS-1A Rocket 4.3 21:58:37 80° NNW 21:58:37 80° NNW 22:04:11 10° NNW
Cosmos 1975 Rocket 4.4 21:57:19 10° NNW 22:00:28 37° NW 22:00:28 37° NW
Cosmos 2360 Rocket 4.1 22:05:56 10° WSW 22:10:43 28° WNW 22:15:29 10° N
SeaSat 1 4.2 22:10:47 24° WSW 22:10:53 24° WSW 22:14:48 10° NW
ATLAS 2AS CENTAUR R/B 3.6 22:06:27 10° NNW 22:11:45 34° NE 22:11:45 34° NE
Okean-O 4.5 22:15:48 28° NW 22:15:48 28° NW 22:18:21 10° NNW
ERS-1 Rocket 4.2 22:19:10 37° WNW 22:19:10 37° WNW 22:22:51 10° NNW
CZ-3 Stage 3 3.6 22:19:40 10° W 22:26:07 33° WSW 22:26:07 33° WSW
Cosmos 1844 Rocket 4.2 22:27:05 10° NW 22:31:19 30° W 22:31:19 30° W
SJ 16-02 3.9 22:31:55 10° NNW 22:33:12 18° NW 22:33:12 18° NW
